| time (UTC) | temp F | wind direction | speed knots | gust knots | rain 1hr in | rain 24hr in | rain mn in | humidity % | barometer mb |
| 20260504234505 | 58 | 345 | 2.6 | 7.0 | 0.00 | 0.00 | 0.00 | 35 | 1008.2 |
| 20260504234012 | 58 | 320 | 1.7 | 10.4 | 0.00 | 0.00 | 0.00 | 36 | 1008.2 |
| 20260504233005 | 58 | 341 | 2.6 | 18.2 | 0.00 | 0.00 | 0.00 | 37 | 1008.1 |
| 20260504233003 | 58 | 341 | 2.6 | 18.2 | 0.00 | 0.00 | 0.00 | 37 | 998.5 |
| 20260504232504 | 58 | 324 | 3.5 | 18.2 | 0.00 | 0.00 | 0.00 | 36 | 1008.1 |
| 20260504232005 | 58 | 319 | 4.3 | 13.9 | 0.00 | 0.00 | 0.00 | 36 | 1007.9 |
| 20260504231504 | 58 | 14 | 6.1 | 14.8 | 0.00 | 0.00 | 0.00 | 35 | 1007.7 |
| 20260504231502 | 58 | 14 | 6.1 | 14.8 | 0.00 | 0.00 | 0.00 | 35 | 998.1 |
| 20260504230504 | 58 | 351 | 7.8 | 21.7 | 0.00 | 0.00 | 0.00 | 35 | 1007.2 |
| 20260504230007 | 59 | 20 | 9.6 | 20.0 | 0.00 | 0.00 | 0.00 | 34 | 1007.2 |
| 20260504230004 | 59 | 20 | 9.6 | 20.0 | 0.00 | 0.00 | 0.00 | 34 | 997.6 |
| 20260504225504 | 60 | 360 | 11.3 | 20.0 | 0.00 | 0.00 | 0.00 | 32 | 1007.0 |
| 20260504225005 | 61 | 332 | 4.3 | 13.9 | 0.00 | 0.00 | 0.00 | 29 | 1007.0 |
| 20260504224504 | 61 | 35 | 8.7 | 11.3 | 0.00 | 0.00 | 0.00 | 27 | 1007.1 |
| 20260504224502 | 61 | 35 | 7.8 | 11.3 | 0.00 | 0.00 | 0.00 | 27 | 997.5 |
| 20260504224005 | 61 | 44 | 7.0 | 9.6 | 0.00 | 0.00 | 0.00 | 28 | 1007.1 |
| 20260504223504 | 61 | 34 | 7.0 | 13.0 | 0.00 | 0.00 | 0.00 | 28 | 1007.0 |
| 20260504223003 | 61 | 46 | 3.5 | 22.6 | 0.00 | 0.00 | 0.00 | 29 | 997.7 |
| 20260504222504 | 61 | 248 | 6.1 | 22.6 | 0.00 | 0.00 | 0.00 | 28 | 1007.3 |
| 20260504222005 | 62 | 297 | 6.1 | 11.3 | 0.00 | 0.00 | 0.00 | 26 | 1007.2 |
| 20260504221509 | 62 | 360 | 2.6 | 7.8 | 0.00 | 0.00 | 0.00 | 26 | 997.4 |
| 20260504221000 | 62 | 360 | 2.6 | 8.7 | 0.00 | 0.00 | 0.00 | 26 | 1007.0 |
| 20260504220007 | 63 | 327 | 4.3 | 8.7 | 0.00 | 0.00 | 0.00 | 25 | 1007.0 |
| 20260504220003 | 63 | 327 | 4.3 | 8.7 | 0.00 | 0.00 | 0.00 | 25 | 997.2 |
| 20260504215504 | 64 | 360 | 2.6 | 9.6 | 0.00 | 0.00 | 0.00 | 24 | 1006.9 |
| 20260504214504 | 64 | 15 | 4.3 | 9.6 | 0.00 | 0.00 | 0.00 | 23 | 1006.9 |
| 20260504214006 | 64 | 355 | 4.3 | 13.0 | 0.00 | 0.00 | 0.00 | 25 | 1006.9 |
| 20260504213504 | 64 | 12 | 9.6 | 13.0 | 0.00 | 0.00 | 0.00 | 23 | 1006.9 |
| 20260504213007 | 65 | 26 | 7.0 | 12.2 | 0.00 | 0.00 | 0.00 | 24 | 1006.9 |
| 20260504213003 | 65 | 26 | 6.1 | 12.2 | 0.00 | 0.00 | 0.00 | 24 | 997.1 |
| 20260504212505 | 65 | 69 | 7.0 | 10.4 | 0.00 | 0.00 | 0.00 | 23 | 1006.9 |
| 20260504212005 | 65 | 28 | 7.0 | 13.9 | 0.00 | 0.00 | 0.00 | 24 | 1007.0 |
| 20260504211506 | 65 | 34 | 7.0 | 13.9 | 0.00 | 0.00 | 0.00 | 24 | 1006.9 |
| 20260504211503 | 65 | 34 | 7.0 | 13.9 | 0.00 | 0.00 | 0.00 | 24 | 997.1 |
| 20260504211005 | 65 | 20 | 9.6 | 14.8 | 0.00 | 0.00 | 0.00 | 23 | 1007.1 |
| 20260504210505 | 67 | 24 | 8.7 | 14.8 | 0.00 | 0.00 | 0.00 | 22 | 1007.0 |
| 20260504210006 | 68 | 11 | 4.3 | 11.3 | 0.00 | 0.00 | 0.00 | 23 | 1007.1 |
| 20260504210003 | 68 | 11 | 4.3 | 11.3 | 0.00 | 0.00 | 0.00 | 23 | 997.2 |
| 20260504205504 | 67 | 9 | 5.2 | 12.2 | 0.00 | 0.00 | 0.00 | 23 | 1007.1 |
| 20260504205005 | 67 | 21 | 4.3 | 14.8 | 0.00 | 0.00 | 0.00 | 24 | 1007.2 |
| 20260504204504 | 66 | 355 | 4.3 | 14.8 | 0.00 | 0.00 | 0.00 | 24 | 1007.4 |
| 20260504204502 | 66 | 355 | 4.3 | 14.8 | 0.00 | 0.00 | 0.00 | 24 | 997.5 |
| 20260504204002 | 66 | 40 | 8.7 | 13.9 | 0.00 | 0.00 | 0.00 | 25 | 1007.3 |
| 20260504203505 | 65 | 19 | 8.7 | 14.8 | 0.00 | 0.00 | 0.00 | 25 | 1007.4 |
| 20260504203006 | 66 | 48 | 8.7 | 13.9 | 0.00 | 0.00 | 0.00 | 24 | 1007.4 |
| 20260504203003 | 66 | 48 | 8.7 | 13.9 | 0.00 | 0.00 | 0.00 | 24 | 997.6 |
| 20260504202505 | 66 | 18 | 8.7 | 13.0 | 0.00 | 0.00 | 0.00 | 24 | 1007.5 |
| 20260504202005 | 66 | 350 | 7.8 | 14.8 | 0.00 | 0.00 | 0.00 | 24 | 1007.6 |
| 20260504201504 | 66 | 11 | 5.2 | 12.2 | 0.00 | 0.00 | 0.00 | 27 | 1007.5 |
| 20260504201005 | 65 | 329 | 4.3 | 13.9 | 0.00 | 0.00 | 0.00 | 26 | 1007.6 |
| 20260504200504 | 64 | 343 | 4.3 | 13.9 | 0.00 | 0.00 | 0.00 | 27 | 1007.7 |
| 20260504200005 | 64 | 336 | 5.2 | 13.9 | 0.00 | 0.00 | 0.00 | 25 | 1007.6 |
| 20260504200003 | 64 | 336 | 4.3 | 13.9 | 0.00 | 0.00 | 0.00 | 25 | 997.9 |
| 20260504195504 | 65 | 12 | 4.3 | 16.5 | 0.00 | 0.00 | 0.00 | 24 | 1007.7 |
| 20260504195002 | 66 | 347 | 7.0 | 18.2 | 0.00 | 0.00 | 0.00 | 23 | 1007.6 |
| 20260504194504 | 67 | 188 | 6.1 | 11.3 | 0.00 | 0.00 | 0.00 | 21 | 1007.3 |
| 20260504194502 | 67 | 188 | 6.1 | 11.3 | 0.00 | 0.00 | 0.00 | 21 | 997.5 |
| 20260504194006 | 68 | 199 | 5.2 | 10.4 | 0.00 | 0.00 | 0.00 | 18 | 1007.4 |
| 20260504193505 | 68 | 165 | 6.1 | 11.3 | 0.00 | 0.00 | 0.00 | 20 | 1007.4 |
| 20260504193005 | 67 | 213 | 3.5 | 7.8 | 0.00 | 0.00 | 0.00 | 21 | 1007.3 |
| 20260504193003 | 67 | 213 | 3.5 | 7.8 | 0.00 | 0.00 | 0.00 | 21 | 997.5 |
| 20260504192504 | 67 | 163 | 3.5 | 7.8 | 0.00 | 0.00 | 0.00 | 20 | 1007.3 |
| 20260504192005 | 66 | 16 | 3.5 | 8.7 | 0.00 | 0.00 | 0.00 | 20 | 1007.3 |
| 20260504191504 | 67 | 37 | 5.2 | 7.8 | 0.00 | 0.00 | 0.00 | 20 | 1007.3 |
| 20260504191502 | 67 | 37 | 4.3 | 7.8 | 0.00 | 0.00 | 0.00 | 20 | 997.5 |
| 20260504191005 | 68 | 55 | 3.5 | 7.8 | 0.00 | 0.00 | 0.00 | 21 | 1007.4 |
| 20260504190505 | 67 | 327 | 3.5 | 10.4 | 0.00 | 0.00 | 0.00 | 23 | 1007.4 |
| 20260504190005 | 66 | 355 | 4.3 | 12.2 | 0.00 | 0.00 | 0.00 | 25 | 997.7 |
| 20260504185504 | 65 | 326 | 7.0 | 12.2 | 0.00 | 0.00 | 0.00 | 24 | 1007.6 |
| 20260504185002 | 65 | 281 | 7.8 | 12.2 | 0.00 | 0.00 | 0.00 | 22 | 1007.7 |
| 20260504184504 | 65 | 289 | 2.6 | 7.0 | 0.00 | 0.00 | 0.00 | 22 | 1007.7 |
| 20260504184502 | 65 | 289 | 1.7 | 7.0 | 0.00 | 0.00 | 0.00 | 22 | 998.0 |
| 20260504184005 | 65 | 311 | 2.6 | 7.0 | 0.00 | 0.00 | 0.00 | 21 | 1007.7 |
| 20260504183504 | 65 | 294 | 1.7 | 7.0 | 0.00 | 0.00 | 0.00 | 22 | 1007.8 |
| 20260504183006 | 65 | 288 | 3.5 | 7.0 | 0.00 | 0.00 | 0.00 | 22 | 1007.9 |
| 20260504183002 | 65 | 288 | 2.6 | 7.0 | 0.00 | 0.00 | 0.00 | 22 | 998.1 |
| 20260504182504 | 65 | 238 | 1.7 | 8.7 | 0.00 | 0.00 | 0.00 | 24 | 1007.9 |
| 20260504181505 | 64 | 300 | 4.3 | 9.6 | 0.00 | 0.00 | 0.00 | 21 | 998.2 |
| 20260504181005 | 64 | 290 | 5.2 | 9.6 | 0.00 | 0.00 | 0.00 | 23 | 1008.0 |
| 20260504180504 | 64 | 309 | 4.3 | 10.4 | 0.00 | 0.00 | 0.00 | 22 | 1008.1 |
| 20260504180006 | 65 | 309 | 4.3 | 13.0 | 0.00 | 0.00 | 0.00 | 22 | 1008.0 |
| 20260504180004 | 65 | 309 | 3.5 | 13.0 | 0.00 | 0.00 | 0.00 | 22 | 998.2 |
| 20260504175505 | 65 | 355 | 8.7 | 13.9 | 0.00 | 0.00 | 0.00 | 21 | 1008.1 |
| 20260504175006 | 66 | 348 | 5.2 | 14.8 | 0.00 | 0.00 | 0.00 | 22 | 1008.3 |
| 20260504174505 | 66 | 314 | 10.4 | 14.8 | 0.00 | 0.00 | 0.00 | 21 | 1008.4 |
| 20260504174503 | 66 | 314 | 9.6 | 14.8 | 0.00 | 0.00 | 0.00 | 21 | 998.6 |
| 20260504174005 | 65 | 309 | 3.5 | 11.3 | 0.00 | 0.00 | 0.00 | 24 | 1008.3 |
| 20260504173505 | 63 | 298 | 2.6 | 7.8 | 0.00 | 0.00 | 0.00 | 24 | 1008.6 |
| 20260504173006 | 64 | 239 | 3.5 | 9.6 | 0.00 | 0.00 | 0.00 | 23 | 1008.7 |
| 20260504173002 | 64 | 239 | 3.5 | 9.6 | 0.00 | 0.00 | 0.00 | 23 | 999.0 |
| 20260504172504 | 65 | 260 | 3.5 | 12.2 | 0.00 | 0.00 | 0.00 | 23 | 1008.7 |
| 20260504171503 | 65 | 285 | 1.7 | 11.3 | 0.00 | 0.00 | 0.00 | 23 | 999.0 |
| 20260504170505 | 66 | 296 | 4.3 | 11.3 | 0.00 | 0.00 | 0.00 | 21 | 1008.8 |
| 20260504151005 | 63 | 265 | 5.2 | 10.4 | 0.00 | 0.00 | 0.00 | 26 | 1009.4 |
| 20260504150504 | 62 | 261 | 5.2 | 10.4 | 0.00 | 0.00 | 0.00 | 27 | 1009.3 |
| 20260504140505 | 58 | 251 | 4.3 | 9.6 | 0.00 | 0.00 | 0.00 | 33 | 1009.3 |
| 20260504130505 | 48 | 211 | 1.7 | 4.3 | 0.00 | 0.00 | 0.00 | 45 | 1009.4 |
| 20260504110504 | 43 | 221 | 1.7 | 2.6 | 0.00 | 0.00 | 0.00 | 51 | 1009.3 |
| 20260504100504 | 42 | 257 | 1.7 | 2.6 | 0.00 | 0.00 | 0.00 | 56 | 1009.7 |
| 20260504082006 | 46 | 194 | 2.6 | 5.2 | 0.00 | 0.00 | 0.00 | 49 | 1010.1 |
| 20260504081503 | 46 | 213 | 1.7 | 3.5 | 0.00 | 0.00 | 0.00 | 49 | 1000.8 |
| 20260504080507 | 46 | 216 | 1.7 | 4.3 | 0.00 | 0.00 | 0.00 | 50 | 1010.2 |
| 20260504050505 | 48 | 210 | 0.9 | 2.6 | 0.00 | 0.00 | 0.00 | 51 | 1011.4 |
| 20260504050006 | 49 | 210 | 1.7 | 3.5 | 0.00 | 0.00 | 0.00 | 49 | 1011.4 |
| 20260504050003 | 49 | 210 | 0.9 | 3.5 | 0.00 | 0.00 | 0.00 | 49 | 1002.1 |
| 20260504045505 | 49 | 210 | 1.7 | 3.5 | 0.00 | 0.00 | 0.00 | 47 | 1011.5 |
| 20260504045005 | 49 | 195 | 0.9 | 2.6 | 0.00 | 0.00 | 0.00 | 47 | 1011.5 |
| 20260504044505 | 49 | 196 | 1.7 | 4.3 | 0.00 | 0.00 | 0.00 | 48 | 1011.6 |
| 20260504044005 | 49 | 195 | 2.6 | 4.3 | 0.00 | 0.00 | 0.00 | 50 | 1011.6 |
| 20260504043505 | 49 | 217 | 2.6 | 5.2 | 0.00 | 0.00 | 0.00 | 51 | 1011.7 |
| 20260504043006 | 49 | 199 | 2.6 | 5.2 | 0.00 | 0.00 | 0.00 | 50 | 1011.8 |
| 20260504043003 | 49 | 199 | 2.6 | 5.2 | 0.00 | 0.00 | 0.00 | 50 | 1002.4 |
| 20260504042505 | 50 | 208 | 0.0 | 2.6 | 0.00 | 0.00 | 0.00 | 49 | 1011.8 |
| 20260504042005 | 51 | 208 | 0.9 | 2.6 | 0.00 | 0.00 | 0.00 | 45 | 1011.7 |
| 20260504041505 | 51 | 208 | 1.7 | 2.6 | 0.00 | 0.00 | 0.00 | 45 | 1011.7 |
| 20260504041005 | 51 | 208 | 1.7 | 4.3 | 0.00 | 0.00 | 0.00 | 44 | 1011.9 |
| 20260504040505 | 51 | 208 | 2.6 | 4.3 | 0.00 | 0.00 | 0.00 | 46 | 1011.9 |
| 20260504040011 | 50 | 208 | 2.6 | 4.3 | 0.00 | 0.00 | 0.00 | 45 | 1002.7 |
| 20260504040006 | 50 | 208 | 3.5 | 4.3 | 0.00 | 0.00 | 0.00 | 45 | 1012.0 |
| 20260504035505 | 50 | 208 | 2.6 | 3.5 | 0.00 | 0.00 | 0.00 | 49 | 1012.0 |
| 20260504035005 | 50 | 208 | 2.6 | 3.5 | 0.00 | 0.00 | 0.00 | 48 | 1012.0 |
| 20260504034505 | 52 | 15 | 0.0 | 0.9 | 0.00 | 0.00 | 0.00 | 48 | 1012.0 |
| 20260504034006 | 52 | 15 | 0.0 | 1.7 | 0.00 | 0.00 | 0.00 | 45 | 1012.0 |
| 20260504033504 | 52 | 15 | 0.9 | 1.7 | 0.00 | 0.00 | 0.00 | 40 | 1011.9 |
| 20260504033006 | 52 | 15 | 0.0 | 0.0 | 0.00 | 0.00 | 0.00 | 43 | 1011.9 |
| 20260504033003 | 52 | 15 | 0.0 | 0.0 | 0.00 | 0.00 | 0.00 | 43 | 1002.6 |
| 20260504032505 | 52 | 15 | 0.0 | 0.0 | 0.00 | 0.00 | 0.00 | 43 | 1012.0 |
| 20260504032005 | 53 | 15 | 0.0 | 0.0 | 0.00 | 0.00 | 0.00 | 41 | 1012.0 |
| 20260504031505 | 53 | 15 | 0.0 | 0.9 | 0.00 | 0.00 | 0.00 | 40 | 1012.0 |
| 20260504031503 | 53 | 15 | 0.0 | 0.9 | 0.00 | 0.00 | 0.00 | 40 | 1002.7 |
| 20260504031006 | 53 | 15 | 0.0 | 0.9 | 0.00 | 0.00 | 0.00 | 42 | 1012.0 |
| 20260504030504 | 53 | 15 | 0.0 | 0.9 | 0.00 | 0.00 | 0.00 | 39 | 1012.0 |
| 20260504030008 | 53 | 15 | 0.0 | 0.0 | 0.00 | 0.00 | 0.00 | 39 | 1012.1 |
| 20260504025006 | 53 | 15 | 0.0 | 0.0 | 0.00 | 0.00 | 0.00 | 39 | 1012.0 |
| 20260504024504 | 54 | 15 | 0.0 | 0.0 | 0.00 | 0.00 | 0.00 | 39 | 1012.0 |
| 20260504024502 | 54 | 15 | 0.0 | 0.0 | 0.00 | 0.00 | 0.00 | 39 | 1002.7 |
| 20260504024005 | 54 | 15 | 0.0 | 0.0 | 0.00 | 0.00 | 0.00 | 39 | 1011.9 |
| 20260504023005 | 55 | 15 | 0.0 | 0.9 | 0.00 | 0.00 | 0.00 | 37 | 1011.8 |
| 20260504023003 | 55 | 15 | 0.0 | 0.9 | 0.00 | 0.00 | 0.00 | 37 | 1002.6 |
| 20260504022504 | 55 | 15 | 0.0 | 0.9 | 0.00 | 0.00 | 0.00 | 37 | 1011.8 |
| 20260504022005 | 56 | 15 | 0.0 | 1.7 | 0.00 | 0.00 | 0.00 | 37 | 1011.8 |
| 20260504021505 | 56 | 15 | 0.0 | 4.3 | 0.00 | 0.00 | 0.00 | 36 | 1011.8 |
| 20260504021503 | 56 | 15 | 0.0 | 4.3 | 0.00 | 0.00 | 0.00 | 36 | 1002.5 |
| 20260504021005 | 57 | 15 | 0.9 | 4.3 | 0.00 | 0.00 | 0.00 | 34 | 1011.7 |
| 20260504020006 | 58 | 330 | 2.6 | 5.2 | 0.00 | 0.00 | 0.00 | 32 | 1011.6 |
| 20260504020004 | 58 | 330 | 1.7 | 5.2 | 0.00 | 0.00 | 0.00 | 32 | 1002.4 |
| 20260504015505 | 58 | 328 | 2.6 | 5.2 | 0.00 | 0.00 | 0.00 | 31 | 1011.6 |
| 20260504014511 | 59 | 324 | 2.6 | 7.0 | 0.00 | 0.00 | 0.00 | 30 | 1002.5 |
| 20260504014006 | 59 | 319 | 2.6 | 7.8 | 0.00 | 0.00 | 0.00 | 30 | 1011.8 |
| 20260504013506 | 59 | 317 | 3.5 | 11.3 | 0.00 | 0.00 | 0.00 | 30 | 1011.7 |
| 20260504013007 | 60 | 350 | 2.6 | 11.3 | 0.00 | 0.00 | 0.00 | 29 | 1011.7 |
| 20260504013004 | 60 | 350 | 2.6 | 11.3 | 0.00 | 0.00 | 0.00 | 29 | 1002.5 |
| 20260504012005 | 60 | 26 | 0.9 | 4.3 | 0.00 | 0.00 | 0.00 | 29 | 1011.5 |
| 20260504011505 | 60 | 355 | 1.7 | 4.3 | 0.00 | 0.00 | 0.00 | 28 | 1011.5 |
| 20260504011502 | 60 | 355 | 1.7 | 4.3 | 0.00 | 0.00 | 0.00 | 28 | 1002.3 |
| 20260504010007 | 61 | 337 | 2.6 | 6.1 | 0.00 | 0.00 | 0.00 | 27 | 1011.3 |
| 20260504010005 | 61 | 337 | 1.7 | 6.1 | 0.00 | 0.00 | 0.00 | 27 | 1002.2 |
| 20260504005459 | 61 | 355 | 1.7 | 5.2 | 0.00 | 0.00 | 0.00 | 28 | 1011.2 |
| 20260504005005 | 62 | 349 | 2.6 | 9.6 | 0.00 | 0.00 | 0.00 | 26 | 1011.2 |
| 20260504004504 | 62 | 36 | 2.6 | 9.6 | 0.00 | 0.00 | 0.00 | 25 | 1011.1 |
| 20260504004005 | 63 | 355 | 6.1 | 13.0 | 0.00 | 0.00 | 0.00 | 24 | 1011.1 |
| 20260504003008 | 63 | 48 | 3.5 | 8.7 | 0.00 | 0.00 | 0.00 | 23 | 1002.1 |
| 20260504003006 | 63 | 48 | 3.5 | 8.7 | 0.00 | 0.00 | 0.00 | 23 | 1011.2 |
| 20260504002505 | 64 | 53 | 4.3 | 11.3 | 0.00 | 0.00 | 0.00 | 21 | 1011.2 |
| 20260504001505 | 65 | 14 | 2.6 | 5.2 | 0.00 | 0.00 | 0.00 | 21 | 1011.3 |
| 20260504001503 | 65 | 14 | 2.6 | 5.2 | 0.00 | 0.00 | 0.00 | 21 | 1002.2 |
| 20260504001005 | 65 | 16 | 1.7 | 3.5 | 0.00 | 0.00 | 0.00 | 20 | 1011.2 |
| 20260504000006 | 65 | 16 | 1.7 | 3.5 | 0.00 | 0.00 | 0.00 | 19 | 1011.2 |
| 20260504000004 | 65 | 16 | 1.7 | 3.5 | 0.00 | 0.00 | 0.00 | 19 | 1002.2 |
| 20260503235505 | 66 | 16 | 0.9 | 3.5 | 0.00 | 0.00 | 0.00 | 19 | 1011.2 |
| 20260503235006 | 66 | 17 | 0.9 | 4.3 | 0.00 | 0.00 | 0.00 | 18 | 1011.2 |